Cedar Rapids, IA

4:55 AM CDT on September 24, 2017 (GMT -0500)
The Eastern Iowa Airport

Weather History for KCID - September, 2013

Change the Weather History Date:

Saturday, September 28, 2013

  Actual Average Record
Temperature  
Mean Temperature 61 °F 58 °F  
Max Temperature 73 °F 70 °F 97 °F (1953)
Min Temperature 48 °F 46 °F 23 °F (1942)
Degree Days  
Heating Degree Days 4 8  
Month to date heating degree days 68 120  
Since 1 July heating degree days 87 139  
Cooling Degree Days 0 1  
Month to date cooling degree days 145 70  
Year to date cooling degree days 865 738  
Growing Degree Days 12 (Base 50)    
Moisture  
Dew Point 57 °F    
Average Humidity 76    
Maximum Humidity 93    
Minimum Humidity 58    
Precipitation  
Precipitation 0.39 in 0.09 in 1.52 in (1972)
Month to date precipitation 2.19 2.98  
Year to date precipitation 31.59 28.28  
Sea Level Pressure  
Sea Level Pressure 29.90 in    
Wind  
Wind Speed 10 mph (SSW)    
Max Wind Speed 22 mph    
Max Gust Speed 30 mph    
Visibility 7 miles    
Events Rain    
T = Trace of Precipitation, MM = Missing Value Source: NWS Daily Summary

Daily Weather History Graph

Daily Weather History Graph

Search for Another Location

Airport or City:

Trip Planner

Search our weather history database for the weather conditions in past years. The results will help you decide how hot, cold, wet, or windy it might be!

Date:

Astronomy

Sep. 28, 2013 Rise Set
Actual Time 7:00 AM CDT 6:53 PM CDT
Civil Twilight 6:33 AM CDT 7:20 PM CDT
Nautical Twilight 6:00 AM CDT 7:53 PM CDT
Astronomical Twilight 5:27 AM CDT 8:26 PM CDT
Moon 12:43 AM CDT (9/28) 3:16 PM CDT (9/28)
Length of Visible Light 12h 47m
Length of Day
11h 52m
Waning Crescent, 36% of the Moon is Illuminated
Sep 28
Waning Crescent
Oct 4
New
Oct 11
First Quarter
Oct 18
Full
Oct 26
Last Quarter

Hourly Weather History & Observations

Time (CDT) Temp. Dew Point Humidity Pressure Visibility Wind Dir Wind Speed Gust Speed Precip Events Conditions
12:52 AM 66.0 °F 52.0 °F 60% 29.93 in 10.0 mi SSE 8.1 mph - N/A   Scattered Clouds
1:52 AM 66.0 °F 51.1 °F 59% 29.92 in 10.0 mi SSE 10.4 mph - N/A   Scattered Clouds
2:52 AM 64.9 °F 51.1 °F 61% 29.90 in 10.0 mi SSE 10.4 mph - N/A   Partly Cloudy
3:52 AM 64.9 °F 53.1 °F 65% 29.90 in 10.0 mi SSE 10.4 mph - N/A   Overcast
4:52 AM 66.0 °F 54.0 °F 65% 29.90 in 10.0 mi SSE 9.2 mph - N/A   Mostly Cloudy
5:52 AM 64.9 °F 55.0 °F 70% 29.90 in 10.0 mi SSE 9.2 mph - N/A   Partly Cloudy
6:52 AM 64.9 °F 55.0 °F 70% 29.89 in 9.0 mi SSE 9.2 mph 18.4 mph N/A   Scattered Clouds
7:52 AM 66.0 °F 55.9 °F 70% 29.88 in 9.0 mi SSE 13.8 mph 23.0 mph N/A   Partly Cloudy
8:52 AM 69.1 °F 57.9 °F 68% 29.87 in 9.0 mi SSE 13.8 mph 24.2 mph N/A   Partly Cloudy
9:52 AM 72.0 °F 59.0 °F 64% 29.86 in 9.0 mi SSE 18.4 mph 27.6 mph N/A   Overcast
10:52 AM 72.0 °F 59.0 °F 64% 29.84 in 10.0 mi South 17.3 mph 21.9 mph 0.00 in   Overcast
11:34 AM 69.8 °F 60.8 °F 73% 29.86 in 4.0 mi South 13.8 mph 25.3 mph 0.01 in Rain Light Rain
11:52 AM 68.0 °F 62.1 °F 81% 29.85 in 3.0 mi South 12.7 mph - 0.03 in Rain Rain
11:54 AM 68.0 °F 62.6 °F 83% 29.86 in 2.5 mi South 13.8 mph - 0.01 in Rain Rain
12:02 PM 66.2 °F 62.6 °F 88% 29.87 in 4.0 mi South 10.4 mph - 0.03 in Rain Light Rain
12:18 PM 68.0 °F 62.6 °F 83% 29.86 in 7.0 mi South 12.7 mph 18.4 mph 0.03 in   Overcast
12:36 PM 68.0 °F 62.6 °F 83% 29.86 in 4.0 mi South 15.0 mph 24.2 mph 0.04 in Rain Rain
12:41 PM 66.2 °F 62.6 °F 88% 29.87 in 2.5 mi South 17.3 mph 24.2 mph 0.06 in Rain Heavy Rain
12:50 PM 66.2 °F 64.4 °F 94% 29.86 in 2.5 mi South 15.0 mph 26.5 mph 0.08 in Rain Light Rain
12:52 PM 66.0 °F 64.0 °F 93% 29.86 in 2.5 mi South 12.7 mph 26.5 mph 0.08 in Rain Light Rain
1:44 PM 66.2 °F 64.4 °F 94% 29.86 in 2.5 mi South 11.5 mph - 0.09 in Rain Light Rain
1:52 PM 66.9 °F 64.9 °F 93% 29.85 in 2.5 mi South 15.0 mph - 0.10 in Rain Light Rain
2:52 PM 66.9 °F 64.9 °F 93% 29.84 in 2.5 mi South 13.8 mph 21.9 mph 0.10 in Rain Rain
2:54 PM 66.2 °F 64.4 °F 94% 29.85 in 1.2 mi South 13.8 mph 21.9 mph 0.00 in Rain Rain
3:05 PM 66.2 °F 66.2 °F 100% 29.85 in 3.0 mi South 12.7 mph 20.7 mph 0.00 in Rain Light Rain
3:32 PM 60.8 °F 57.2 °F 88% 29.88 in 4.0 mi WNW 18.4 mph 29.9 mph 0.01 in Rain Light Rain
3:50 PM 59.0 °F 57.2 °F 94% 29.88 in 4.0 mi WNW 15.0 mph - 0.02 in Rain Light Rain
3:52 PM 59.0 °F 57.0 °F 93% 29.88 in 4.0 mi NW 13.8 mph - 0.02 in Rain Light Rain
4:52 PM 57.9 °F 55.9 °F 93% 29.90 in 7.0 mi NW 11.5 mph - 0.01 in Rain Light Rain
4:57 PM 57.2 °F 55.4 °F 94% 29.91 in 9.0 mi WNW 11.5 mph - 0.00 in   Overcast
5:44 PM 57.2 °F 55.4 °F 94% 29.93 in 2.5 mi WNW 9.2 mph - 0.05 in Rain Rain
5:48 PM 57.2 °F 55.4 °F 94% 29.94 in 8.0 mi WNW 9.2 mph - 0.05 in   Drizzle
5:52 PM 57.0 °F 55.0 °F 93% 29.94 in 8.0 mi WNW 11.5 mph - 0.05 in   Drizzle
6:52 PM 57.0 °F 54.0 °F 89% 29.95 in 10.0 mi WNW 6.9 mph - 0.00 in   Scattered Clouds
7:52 PM 54.0 °F 52.0 °F 93% 29.97 in 10.0 mi West 5.8 mph - N/A   Clear
8:29 PM 53.6 °F 51.8 °F 94% 29.98 in 10.0 mi WSW 3.5 mph - N/A   Mostly Cloudy
8:52 PM 55.0 °F 53.1 °F 93% 29.98 in 10.0 mi WSW 3.5 mph - N/A   Mostly Cloudy
9:04 PM 53.6 °F 51.8 °F 94% 29.99 in 10.0 mi WSW 3.5 mph - N/A   Scattered Clouds
9:52 PM 51.1 °F 48.0 °F 89% 30.00 in 10.0 mi West 6.9 mph - N/A   Clear
10:52 PM 51.1 °F 46.0 °F 83% 30.01 in 10.0 mi WNW 4.6 mph - N/A   Clear
11:52 PM 48.9 °F 46.9 °F 93% 30.02 in 10.0 mi West 5.8 mph - N/A   Clear